Bryce Canyon, UT

2:33 AM MST on December 07, 2019 (GMT -0700)
Bryce Canyon

Weather History for KBCE - August, 2019

Change the Weather History Date:

Friday, August 16, 2019

  Actual Average Record
Temperature  
Mean Temperature 64 °F -  
Max Temperature 84 °F 76 °F 89 °F (2002)
Min Temperature 45 °F 44 °F 34 °F (1980)
Degree Days  
Heating Degree Days 2    
Growing Degree Days 14 (Base 50)    
Moisture  
Dew Point 25 °F    
Average Humidity 27    
Maximum Humidity 58    
Minimum Humidity 9    
Precipitation  
Precipitation 0.00 in - - ()
Sea Level Pressure  
Sea Level Pressure 29.89 in    
Wind  
Wind Speed 7 mph (WSW)    
Max Wind Speed 17 mph    
Max Gust Speed 28 mph    
Visibility 10 miles    
Events      
Averages and records for this station are not official NWS values.
T = Trace of Precipitation, MM = Missing Value Source: NWS Daily Summary

Daily Weather History Graph

Daily Weather History Graph

Search for Another Location

Airport or City:

Astronomy

Aug. 16, 2019 Rise Set
Actual Time 6:44 AM MDT 8:20 PM MDT
Civil Twilight 6:17 AM MDT 8:47 PM MDT
Nautical Twilight 5:43 AM MDT 9:21 PM MDT
Astronomical Twilight 5:07 AM MDT 9:56 PM MDT
Moon 9:22 PM MDT (8/16) 7:40 AM MDT (8/16)
Length of Visible Light 14h 30m
Length of Day
13h 35m
Full, 99% of the Moon is Illuminated
Aug 16
Full
Aug 23
Last Quarter
Aug 30
New
Sep 5
First Quarter
Sep 13
Full

Hourly Weather History & Observations

Time (MDT) Temp. Dew Point Humidity Pressure Visibility Wind Dir Wind Speed Gust Speed Precip Events Conditions
12:53 AM 53.1 °F 30.9 °F 43% 29.91 in 10.0 mi Calm Calm - N/A   Clear
1:53 AM 54.0 °F 30.0 °F 40% 29.91 in 10.0 mi West 10.4 mph - N/A   Clear
2:53 AM 54.0 °F 30.0 °F 40% 29.90 in 10.0 mi West 10.4 mph - N/A   Clear
3:53 AM 51.1 °F 30.0 °F 44% 29.90 in 10.0 mi West 6.9 mph - N/A   Clear
4:53 AM 50.0 °F 30.0 °F 46% 29.91 in 10.0 mi West 4.6 mph - N/A   Clear
5:53 AM 45.0 °F 30.9 °F 58% 29.93 in 10.0 mi Calm Calm - N/A   Clear
6:53 AM 45.0 °F 30.9 °F 58% 29.96 in 10.0 mi Calm Calm - N/A   Clear
7:53 AM 54.0 °F 36.0 °F 51% 29.97 in 10.0 mi SW 3.5 mph - N/A   Clear
8:53 AM 64.9 °F 32.0 °F 29% 29.96 in 10.0 mi Calm Calm - N/A   Clear
9:53 AM 77.0 °F 25.0 °F 15% 29.91 in 10.0 mi WSW 13.8 mph - N/A   Clear
10:53 AM 79.0 °F 24.1 °F 13% 29.92 in 10.0 mi West 15.0 mph 19.6 mph N/A   Clear
11:53 AM 82.0 °F 25.0 °F 12% 29.92 in 10.0 mi SW 17.3 mph 27.6 mph N/A   Clear
12:53 PM 82.0 °F 23.0 °F 11% 29.90 in 10.0 mi WSW 16.1 mph 23.0 mph N/A   Clear
1:53 PM 82.0 °F 19.9 °F 10% 29.88 in 10.0 mi Variable 4.6 mph - N/A   Clear
2:53 PM 82.9 °F 21.9 °F 11% 29.85 in 10.0 mi West 8.1 mph 17.3 mph N/A   Clear
3:53 PM 82.0 °F 19.0 °F 10% 29.85 in 10.0 mi Calm Calm - N/A   Clear
4:53 PM 82.9 °F 21.0 °F 10% 29.83 in 10.0 mi WSW 15.0 mph 19.6 mph N/A   Clear
5:53 PM 81.0 °F 18.0 °F 10% 29.86 in 10.0 mi WSW 15.0 mph - N/A   Clear
6:53 PM 79.0 °F 14.0 °F 9% 29.86 in 10.0 mi SW 12.7 mph 24.2 mph N/A   Clear
7:53 PM 73.9 °F 18.0 °F 12% 29.84 in 10.0 mi SW 11.5 mph - N/A   Clear
8:53 PM 62.1 °F 21.0 °F 21% 29.84 in 10.0 mi WSW 6.9 mph - N/A   Clear
9:53 PM 59.0 °F 21.0 °F 23% 29.83 in 10.0 mi WSW 5.8 mph - N/A   Clear
10:53 PM 55.9 °F 21.9 °F 27% 29.83 in 10.0 mi West 5.8 mph - N/A   Clear
11:53 PM 51.1 °F 24.1 °F 35% 29.83 in 10.0 mi North 3.5 mph - N/A   Clear